Time,TemperatureF,DewpointF,PressureIn,WindDirection,WindDirectionDegrees,WindSpeedMPH,WindSpeedGustMPH,Humidity,HourlyPrecipIn,Conditions,Clouds,dailyrainin,SoftwareType,DateUTC
2013-10-26 00:01:00,33.8,28.6,30.36,North,0,0.0,0.0,81,0.00,,,0.00,meteohub,2013-10-26 04:01:00,
2013-10-26 00:02:00,33.8,28.6,30.36,North,0,0.0,0.0,81,0.00,,,0.00,meteohub,2013-10-26 04:02:00,
2013-10-26 00:03:00,33.8,28.9,30.36,North,0,0.0,0.0,82,0.00,,,0.00,meteohub,2013-10-26 04:03:00,
2013-10-26 00:08:00,33.8,28.9,30.36,North,0,0.0,0.0,82,0.00,,,0.00,meteohub,2013-10-26 04:08:00,
2013-10-26 00:13:00,33.6,28.9,30.36,North,0,0.0,0.0,83,0.00,,,0.00,meteohub,2013-10-26 04:13:00,
2013-10-26 00:18:00,33.4,29.1,30.36,North,0,0.0,0.0,84,0.00,,,0.00,meteohub,2013-10-26 04:18:00,
2013-10-26 00:23:00,33.3,28.9,30.36,North,0,0.0,0.0,84,0.00,,,0.00,meteohub,2013-10-26 04:23:00,
2013-10-26 00:28:00,33.3,28.9,30.36,North,0,0.0,0.0,84,0.00,,,0.00,meteohub,2013-10-26 04:28:00,
2013-10-26 00:34:00,33.1,29.1,30.36,North,0,0.0,0.0,85,0.00,,,0.00,meteohub,2013-10-26 04:34:00,
2013-10-26 00:38:00,33.1,29.1,30.36,North,0,0.0,0.0,85,0.00,,,0.00,meteohub,2013-10-26 04:38:00,
2013-10-26 00:43:00,32.9,28.9,30.36,North,0,0.0,0.0,85,0.00,,,0.00,meteohub,2013-10-26 04:43:00,
2013-10-26 00:48:00,32.7,28.8,30.36,North,0,0.0,0.0,85,0.00,,,0.00,meteohub,2013-10-26 04:48:00,
2013-10-26 00:54:00,33.1,29.3,30.36,North,0,0.0,0.0,86,0.00,,,0.00,meteohub,2013-10-26 04:54:00,
2013-10-26 00:59:00,32.9,29.1,30.36,North,0,0.0,0.0,86,0.00,,,0.00,meteohub,2013-10-26 04:59:00,
2013-10-26 01:04:00,32.9,29.1,30.36,North,0,0.0,0.0,86,0.00,,,0.00,meteohub,2013-10-26 05:04:00,
2013-10-26 01:09:00,32.7,28.9,30.36,North,0,0.0,0.0,86,0.00,,,0.00,meteohub,2013-10-26 05:09:00,
2013-10-26 01:14:00,32.7,28.9,30.36,North,0,0.0,0.0,86,0.00,,,0.00,meteohub,2013-10-26 05:14:00,
2013-10-26 01:19:00,32.7,29.3,30.36,North,0,0.0,0.0,87,0.00,,,0.00,meteohub,2013-10-26 05:19:00,
2013-10-26 01:24:00,32.7,29.3,30.36,North,0,0.0,0.0,87,0.00,,,0.00,meteohub,2013-10-26 05:24:00,
2013-10-26 01:29:00,32.7,29.3,30.33,North,0,0.0,0.0,87,0.00,,,0.00,meteohub,2013-10-26 05:29:00,
2013-10-26 01:34:00,32.5,29.1,30.33,North,0,0.0,0.0,87,0.00,,,0.00,meteohub,2013-10-26 05:34:00,
2013-10-26 01:39:00,32.5,29.3,30.33,North,0,0.0,0.0,88,0.00,,,0.00,meteohub,2013-10-26 05:39:00,
2013-10-26 01:44:00,32.4,29.1,30.33,North,0,0.0,0.0,88,0.00,,,0.00,meteohub,2013-10-26 05:44:00,
2013-10-26 01:49:00,32.2,28.9,30.33,North,0,0.0,0.0,88,0.00,,,0.00,meteohub,2013-10-26 05:49:00,
2013-10-26 01:54:00,32.0,28.9,30.33,North,0,0.0,0.0,88,0.00,,,0.00,meteohub,2013-10-26 05:54:00,
2013-10-26 01:59:00,32.0,28.9,30.33,North,0,0.0,0.0,88,0.00,,,0.00,meteohub,2013-10-26 05:59:00,
2013-10-26 02:04:00,32.0,29.1,30.33,North,0,0.0,0.0,89,0.00,,,0.00,meteohub,2013-10-26 06:04:00,
2013-10-26 02:09:00,31.8,28.9,30.33,North,0,0.0,0.0,89,0.00,,,0.00,meteohub,2013-10-26 06:09:00,
2013-10-26 02:14:00,31.8,28.9,30.33,North,0,0.0,0.0,89,0.00,,,0.00,meteohub,2013-10-26 06:14:00,
2013-10-26 02:19:00,31.6,28.8,30.33,North,0,0.0,0.0,89,0.00,,,0.00,meteohub,2013-10-26 06:19:00,
2013-10-26 02:24:00,31.6,28.8,30.33,North,0,0.0,0.0,89,0.00,,,0.00,meteohub,2013-10-26 06:24:00,
2013-10-26 02:29:00,31.5,28.6,30.33,North,0,0.0,0.0,89,0.00,,,0.00,meteohub,2013-10-26 06:29:00,
2013-10-26 02:34:00,31.3,28.8,30.33,North,0,0.0,0.0,90,0.00,,,0.00,meteohub,2013-10-26 06:34:00,
2013-10-26 02:39:00,31.3,28.8,30.33,North,0,0.0,0.0,90,0.00,,,0.00,meteohub,2013-10-26 06:39:00,
2013-10-26 02:44:00,31.3,28.8,30.33,North,0,0.0,0.0,90,0.00,,,0.00,meteohub,2013-10-26 06:44:00,
2013-10-26 02:49:00,31.1,28.6,30.33,North,0,0.0,0.0,90,0.00,,,0.00,meteohub,2013-10-26 06:49:00,
2013-10-26 02:54:00,31.1,28.6,30.33,North,0,0.0,0.0,90,0.00,,,0.00,meteohub,2013-10-26 06:54:00,
2013-10-26 02:59:00,31.3,28.9,30.33,North,0,0.0,0.0,91,0.00,,,0.00,meteohub,2013-10-26 06:59:00,
2013-10-26 03:04:00,31.3,28.9,30.33,North,0,0.0,0.0,91,0.00,,,0.00,meteohub,2013-10-26 07:04:00,
2013-10-26 03:09:00,31.5,29.1,30.33,North,0,0.0,0.0,91,0.00,,,0.00,meteohub,2013-10-26 07:09:00,
2013-10-26 03:14:00,31.6,29.7,30.33,North,0,0.0,0.0,92,0.00,,,0.00,meteohub,2013-10-26 07:14:00,
2013-10-26 03:19:00,31.5,29.5,30.33,North,0,0.0,0.0,92,0.00,,,0.00,meteohub,2013-10-26 07:19:00,
2013-10-26 03:24:00,31.5,29.5,30.33,North,0,0.0,0.0,92,0.00,,,0.00,meteohub,2013-10-26 07:24:00,
2013-10-26 03:29:00,31.5,29.5,30.33,North,0,0.0,0.0,92,0.00,,,0.00,meteohub,2013-10-26 07:29:00,
2013-10-26 03:34:00,31.3,29.3,30.33,North,0,0.0,0.0,92,0.00,,,0.00,meteohub,2013-10-26 07:34:00,
2013-10-26 03:39:00,31.3,29.3,30.33,North,0,0.0,0.0,92,0.00,,,0.00,meteohub,2013-10-26 07:39:00,
2013-10-26 03:44:00,31.3,29.3,30.30,North,0,0.0,0.0,92,0.00,,,0.00,meteohub,2013-10-26 07:44:00,
2013-10-26 03:49:00,31.3,29.3,30.30,North,0,0.0,0.0,92,0.00,,,0.00,meteohub,2013-10-26 07:49:00,
2013-10-26 03:54:00,31.3,29.3,30.30,North,0,0.0,0.0,92,0.00,,,0.00,meteohub,2013-10-26 07:54:00,
2013-10-26 03:59:00,31.3,29.3,30.30,North,0,0.0,0.0,92,0.00,,,0.00,meteohub,2013-10-26 07:59:00,
2013-10-26 04:04:00,31.3,29.3,30.30,North,0,0.0,0.0,92,0.00,,,0.00,meteohub,2013-10-26 08:04:00,
2013-10-26 04:09:00,31.3,29.3,30.30,North,0,0.0,0.0,92,0.00,,,0.00,meteohub,2013-10-26 08:09:00,
2013-10-26 04:14:00,31.5,29.7,30.30,North,0,0.0,0.0,93,0.00,,,0.00,meteohub,2013-10-26 08:14:00,
2013-10-26 04:20:00,31.3,29.5,30.30,North,0,0.0,0.0,93,0.00,,,0.00,meteohub,2013-10-26 08:20:00,
2013-10-26 04:25:00,31.3,29.3,30.30,North,0,0.0,0.0,92,0.00,,,0.00,meteohub,2013-10-26 08:25:00,
2013-10-26 04:30:00,31.1,29.1,30.33,North,0,0.0,0.0,92,0.00,,,0.00,meteohub,2013-10-26 08:30:00,
2013-10-26 04:35:00,31.1,29.1,30.33,North,0,0.0,0.0,92,0.00,,,0.00,meteohub,2013-10-26 08:35:00,
2013-10-26 04:40:00,31.1,29.1,30.33,North,0,0.0,0.0,92,0.00,,,0.00,meteohub,2013-10-26 08:40:00,
2013-10-26 04:45:00,30.9,28.9,30.30,North,0,0.0,0.0,92,0.00,,,0.00,meteohub,2013-10-26 08:45:00,
2013-10-26 04:50:00,30.9,28.9,30.30,North,0,0.0,0.0,92,0.00,,,0.00,meteohub,2013-10-26 08:50:00,
2013-10-26 04:55:00,30.7,28.8,30.30,North,0,0.0,0.0,92,0.00,,,0.00,meteohub,2013-10-26 08:55:00,
2013-10-26 05:00:00,30.6,28.8,30.33,North,0,0.0,0.0,93,0.00,,,0.00,meteohub,2013-10-26 09:00:00,
2013-10-26 05:05:00,30.6,28.8,30.33,North,0,0.0,0.0,93,0.00,,,0.00,meteohub,2013-10-26 09:05:00,
2013-10-26 05:10:00,30.2,28.4,30.33,North,0,0.0,0.0,93,0.00,,,0.00,meteohub,2013-10-26 09:10:00,
2013-10-26 05:15:00,30.2,28.4,30.33,North,0,0.0,0.0,93,0.00,,,0.00,meteohub,2013-10-26 09:15:00,
2013-10-26 05:20:00,30.0,28.2,30.33,North,0,0.0,0.0,93,0.00,,,0.00,meteohub,2013-10-26 09:20:00,
2013-10-26 05:25:00,30.0,28.2,30.33,North,0,0.0,0.0,93,0.00,,,0.00,meteohub,2013-10-26 09:25:00,
2013-10-26 05:30:00,30.2,28.8,30.33,North,0,0.0,0.0,94,0.00,,,0.00,meteohub,2013-10-26 09:30:00,
2013-10-26 05:35:00,29.8,28.4,30.33,North,0,0.0,0.0,94,0.00,,,0.00,meteohub,2013-10-26 09:35:00,
2013-10-26 05:40:00,29.8,28.4,30.33,North,0,0.0,0.0,94,0.00,,,0.00,meteohub,2013-10-26 09:40:00,
2013-10-26 05:45:00,29.8,28.4,30.30,North,0,0.0,0.0,94,0.00,,,0.00,meteohub,2013-10-26 09:45:00,
2013-10-26 05:50:00,29.8,28.4,30.30,North,0,0.0,0.0,94,0.00,,,0.00,meteohub,2013-10-26 09:50:00,
2013-10-26 05:55:00,29.7,28.2,30.30,North,0,0.0,0.0,94,0.00,,,0.00,meteohub,2013-10-26 09:55:00,
2013-10-26 06:00:00,29.5,28.0,30.30,North,0,0.0,0.0,94,0.00,,,0.00,meteohub,2013-10-26 10:00:00,
2013-10-26 06:05:00,29.5,28.0,30.30,North,0,0.0,0.0,94,0.00,,,0.00,meteohub,2013-10-26 10:05:00,
2013-10-26 06:10:00,29.3,27.9,30.30,North,0,0.0,0.0,94,0.00,,,0.00,meteohub,2013-10-26 10:10:00,
2013-10-26 06:15:00,29.3,27.9,30.30,North,0,0.0,0.0,94,0.00,,,0.00,meteohub,2013-10-26 10:15:00,
2013-10-26 06:20:00,29.3,28.0,30.30,North,0,0.0,0.0,95,0.00,,,0.00,meteohub,2013-10-26 10:20:00,
2013-10-26 06:25:00,29.3,28.0,30.30,North,0,0.0,0.0,95,0.00,,,0.00,meteohub,2013-10-26 10:25:00,
2013-10-26 06:30:00,29.1,27.9,30.30,North,0,0.0,0.0,95,0.00,,,0.00,meteohub,2013-10-26 10:30:00,
2013-10-26 06:35:00,29.1,27.9,30.30,North,0,0.0,0.0,95,0.00,,,0.00,meteohub,2013-10-26 10:35:00,
2013-10-26 06:41:00,29.3,28.0,30.30,North,0,0.0,0.0,95,0.00,,,0.00,meteohub,2013-10-26 10:41:00,
2013-10-26 06:46:00,29.1,27.9,30.30,North,0,0.0,0.0,95,0.00,,,0.00,meteohub,2013-10-26 10:46:00,
2013-10-26 06:51:00,29.3,28.2,30.30,North,0,0.0,0.0,96,0.00,,,0.00,meteohub,2013-10-26 10:51:00,
2013-10-26 06:56:00,29.3,28.2,30.30,North,0,0.0,0.0,96,0.00,,,0.00,meteohub,2013-10-26 10:56:00,
2013-10-26 07:01:00,29.1,28.0,30.30,North,0,0.0,0.0,96,0.00,,,0.00,meteohub,2013-10-26 11:01:00,
2013-10-26 07:06:00,28.9,27.9,30.30,North,0,0.0,0.0,96,0.00,,,0.00,meteohub,2013-10-26 11:06:00,
2013-10-26 07:11:00,28.9,27.9,30.30,North,0,0.0,0.0,96,0.00,,,0.00,meteohub,2013-10-26 11:11:00,
2013-10-26 07:16:00,29.3,28.2,30.30,North,0,0.0,0.0,96,0.00,,,0.00,meteohub,2013-10-26 11:16:00,
2013-10-26 07:21:00,29.1,28.0,30.30,North,0,0.0,0.0,96,0.00,,,0.00,meteohub,2013-10-26 11:21:00,
2013-10-26 07:26:00,28.9,28.2,30.30,North,0,0.0,0.0,97,0.00,,,0.00,meteohub,2013-10-26 11:26:00,
2013-10-26 07:31:00,29.1,28.4,30.30,North,0,0.0,0.0,97,0.00,,,0.00,meteohub,2013-10-26 11:31:00,
2013-10-26 07:36:00,29.1,28.4,30.30,North,0,0.0,0.0,97,0.00,,,0.00,meteohub,2013-10-26 11:36:00,
2013-10-26 07:41:00,29.1,28.4,30.30,North,0,0.0,0.0,97,0.00,,,0.00,meteohub,2013-10-26 11:41:00,
2013-10-26 07:46:00,29.1,28.4,30.30,North,0,0.0,0.0,97,0.00,,,0.00,meteohub,2013-10-26 11:46:00,
2013-10-26 07:51:00,29.3,28.6,30.30,North,0,0.0,0.0,97,0.00,,,0.00,meteohub,2013-10-26 11:51:00,
2013-10-26 07:56:00,29.3,28.6,30.30,North,0,0.0,0.0,97,0.00,,,0.00,meteohub,2013-10-26 11:56:00,
2013-10-26 08:01:00,29.3,28.6,30.30,North,0,0.0,0.0,97,0.00,,,0.00,meteohub,2013-10-26 12:01:00,
2013-10-26 08:06:00,29.3,28.6,30.30,North,0,0.0,0.0,97,0.00,,,0.00,meteohub,2013-10-26 12:06:00,
2013-10-26 08:11:00,29.8,29.3,30.30,North,0,0.0,0.0,98,0.00,,,0.00,meteohub,2013-10-26 12:11:00,
2013-10-26 08:16:00,30.2,29.7,30.30,North,0,0.0,0.0,98,0.00,,,0.00,meteohub,2013-10-26 12:16:00,
2013-10-26 08:21:00,30.7,30.2,30.30,North,0,0.0,0.0,98,0.00,,,0.00,meteohub,2013-10-26 12:21:00,
2013-10-26 08:26:00,31.3,30.7,30.33,North,0,0.0,0.0,98,0.00,,,0.00,meteohub,2013-10-26 12:26:00,
2013-10-26 08:31:00,32.0,31.5,30.33,North,0,0.0,0.0,98,0.00,,,0.00,meteohub,2013-10-26 12:31:00,
2013-10-26 08:36:00,32.5,32.0,30.33,North,0,0.0,0.0,98,0.00,,,0.00,meteohub,2013-10-26 12:36:00,
2013-10-26 08:41:00,33.3,32.7,30.30,North,0,0.0,0.0,98,0.00,,,0.00,meteohub,2013-10-26 12:41:00,
2013-10-26 08:46:00,33.6,33.1,30.30,North,0,0.0,0.0,98,0.00,,,0.00,meteohub,2013-10-26 12:46:00,
2013-10-26 08:51:00,34.5,34.0,30.30,NNE,22,0.0,4.0,98,0.00,,,0.00,meteohub,2013-10-26 12:51:00,
2013-10-26 08:56:00,34.9,34.2,30.33,WSW,248,2.0,4.0,97,0.00,,,0.00,meteohub,2013-10-26 12:56:00,
2013-10-26 09:01:00,35.6,34.3,30.33,WSW,248,3.0,4.0,95,0.00,,,0.00,meteohub,2013-10-26 13:01:00,
2013-10-26 09:06:00,36.1,33.8,30.33,WSW,248,0.0,4.0,91,0.00,,,0.00,meteohub,2013-10-26 13:06:00,
2013-10-26 09:11:00,36.7,32.9,30.33,WSW,248,0.0,6.0,86,0.00,,,0.00,meteohub,2013-10-26 13:11:00,
2013-10-26 09:16:00,37.2,30.9,30.33,WSW,248,0.0,6.0,78,0.00,,,0.00,meteohub,2013-10-26 13:16:00,
2013-10-26 09:21:00,37.6,29.3,30.33,NE,45,4.0,6.0,72,0.00,,,0.00,meteohub,2013-10-26 13:21:00,
2013-10-26 09:26:00,38.5,28.0,30.30,NE,45,4.0,4.0,66,0.00,,,0.00,meteohub,2013-10-26 13:26:00,
2013-10-26 09:31:00,39.0,26.2,30.30,WSW,248,0.0,4.0,60,0.00,,,0.00,meteohub,2013-10-26 13:31:00,
2013-10-26 09:37:00,39.6,24.8,30.30,SW,225,0.0,4.0,55,0.00,,,0.00,meteohub,2013-10-26 13:37:00,
2013-10-26 09:42:00,39.9,25.0,30.30,SW,225,4.0,5.0,55,0.00,,,0.00,meteohub,2013-10-26 13:42:00,
2013-10-26 09:47:00,40.5,22.8,30.30,WSW,248,4.0,5.0,49,0.00,,,0.00,meteohub,2013-10-26 13:47:00,
2013-10-26 09:52:00,41.2,21.9,30.30,WSW,248,2.0,5.0,46,0.00,,,0.00,meteohub,2013-10-26 13:52:00,
2013-10-26 09:57:00,41.7,23.5,30.30,WSW,248,0.0,6.0,48,0.00,,,0.00,meteohub,2013-10-26 13:57:00,
2013-10-26 10:02:00,42.1,22.8,30.30,WSW,248,5.0,6.0,46,0.00,,,0.00,meteohub,2013-10-26 14:02:00,
2013-10-26 10:07:00,42.8,22.5,30.30,WSW,248,4.0,6.0,44,0.00,,,0.00,meteohub,2013-10-26 14:07:00,
2013-10-26 10:12:00,43.0,22.1,30.30,WSW,248,0.0,8.0,43,0.00,,,0.00,meteohub,2013-10-26 14:12:00,
2013-10-26 10:17:00,43.5,22.5,30.30,WSW,248,0.0,8.0,43,0.00,,,0.00,meteohub,2013-10-26 14:17:00,
2013-10-26 10:22:00,44.1,23.0,30.30,WSW,248,5.0,6.0,43,0.00,,,0.00,meteohub,2013-10-26 14:22:00,
2013-10-26 10:27:00,44.4,23.4,30.30,ESE,112,3.0,6.0,43,0.00,,,0.00,meteohub,2013-10-26 14:27:00,
2013-10-26 10:32:00,45.1,23.4,30.30,West,270,3.0,6.0,42,0.00,,,0.00,meteohub,2013-10-26 14:32:00,
2013-10-26 10:37:00,45.9,24.6,30.30,WSW,248,5.0,6.0,43,0.00,,,0.00,meteohub,2013-10-26 14:37:00,
2013-10-26 10:42:00,46.0,24.8,30.30,WSW,248,3.0,7.0,43,0.00,,,0.00,meteohub,2013-10-26 14:42:00,
2013-10-26 10:47:00,46.6,24.1,30.30,WSW,248,5.0,7.0,41,0.00,,,0.00,meteohub,2013-10-26 14:47:00,
2013-10-26 10:52:00,46.9,23.2,30.30,SW,225,3.0,7.0,39,0.00,,,0.00,meteohub,2013-10-26 14:52:00,
2013-10-26 10:57:00,47.1,23.4,30.30,WNW,292,4.0,7.0,39,0.00,,,0.00,meteohub,2013-10-26 14:57:00,
2013-10-26 11:02:00,47.8,24.1,30.30,ESE,112,3.0,7.0,39,0.00,,,0.00,meteohub,2013-10-26 15:02:00,
2013-10-26 11:07:00,48.2,23.2,30.30,WSW,248,3.0,7.0,37,0.00,,,0.00,meteohub,2013-10-26 15:07:00,
2013-10-26 11:12:00,48.7,23.5,30.30,WNW,292,3.0,7.0,37,0.00,,,0.00,meteohub,2013-10-26 15:12:00,
2013-10-26 11:17:00,49.1,23.9,30.30,SW,225,0.0,7.0,37,0.00,,,0.00,meteohub,2013-10-26 15:17:00,
2013-10-26 11:22:00,49.5,23.5,30.30,SW,225,8.0,8.0,36,0.00,,,0.00,meteohub,2013-10-26 15:22:00,
2013-10-26 11:27:00,49.8,23.9,30.27,SW,225,3.0,8.0,36,0.00,,,0.00,meteohub,2013-10-26 15:27:00,
2013-10-26 11:32:00,50.5,23.2,30.27,SW,225,5.0,8.0,34,0.00,,,0.00,meteohub,2013-10-26 15:32:00,
2013-10-26 11:37:00,50.5,22.5,30.27,NNW,338,4.0,8.0,33,0.00,,,0.00,meteohub,2013-10-26 15:37:00,
2013-10-26 11:42:00,50.9,22.1,30.27,West,270,6.0,8.0,32,0.00,,,0.00,meteohub,2013-10-26 15:42:00,
2013-10-26 11:47:00,51.3,20.8,30.27,SW,225,7.0,8.0,30,0.00,,,0.00,meteohub,2013-10-26 15:47:00,
2013-10-26 11:52:00,51.8,20.5,30.27,West,270,0.0,8.0,29,0.00,,,0.00,meteohub,2013-10-26 15:52:00,
2013-10-26 11:57:00,52.3,21.0,30.27,West,270,4.0,8.0,29,0.00,,,0.00,meteohub,2013-10-26 15:57:00,
2013-10-26 12:02:00,52.5,20.3,30.27,SW,225,6.0,8.0,28,0.00,,,0.00,meteohub,2013-10-26 16:02:00,
2013-10-26 12:07:00,52.9,20.7,30.27,North,0,2.0,8.0,28,0.00,,,0.00,meteohub,2013-10-26 16:07:00,
2013-10-26 12:12:00,53.1,19.9,30.27,SSW,202,6.0,9.0,27,0.00,,,0.00,meteohub,2013-10-26 16:12:00,
2013-10-26 12:17:00,53.6,21.2,30.27,WSW,248,8.0,11.0,28,0.00,,,0.00,meteohub,2013-10-26 16:17:00,
2013-10-26 12:22:00,53.6,20.5,30.27,West,270,4.0,11.0,27,0.00,,,0.00,meteohub,2013-10-26 16:22:00,
2013-10-26 12:27:00,53.4,20.3,30.27,NE,45,3.0,11.0,27,0.00,,,0.00,meteohub,2013-10-26 16:27:00,
2013-10-26 12:32:00,53.1,19.9,30.27,WNW,292,3.0,11.0,27,0.00,,,0.00,meteohub,2013-10-26 16:32:00,
2013-10-26 12:37:00,54.1,20.8,30.27,WSW,248,6.0,12.0,27,0.00,,,0.00,meteohub,2013-10-26 16:37:00,
2013-10-26 12:42:00,53.1,19.9,30.25,WSW,248,9.0,12.0,27,0.00,,,0.00,meteohub,2013-10-26 16:42:00,
2013-10-26 12:47:00,53.4,20.3,30.25,West,270,11.0,11.0,27,0.00,,,0.00,meteohub,2013-10-26 16:47:00,
2013-10-26 12:52:00,53.2,20.1,30.25,WSW,248,4.0,11.0,27,0.00,,,0.00,meteohub,2013-10-26 16:52:00,
2013-10-26 12:57:00,53.8,20.7,30.25,SE,135,3.0,11.0,27,0.00,,,0.00,meteohub,2013-10-26 16:57:00,
2013-10-26 13:02:00,54.7,21.4,30.25,WSW,248,8.0,11.0,27,0.00,,,0.00,meteohub,2013-10-26 17:02:00,
2013-10-26 13:07:00,55.6,21.2,30.25,WNW,292,3.0,8.0,26,0.00,,,0.00,meteohub,2013-10-26 17:07:00,
2013-10-26 13:12:00,55.0,20.8,30.22,SW,225,7.0,8.0,26,0.00,,,0.00,meteohub,2013-10-26 17:12:00,
2013-10-26 13:17:00,54.9,20.7,30.22,WSW,248,8.0,8.0,26,0.00,,,0.00,meteohub,2013-10-26 17:17:00,
2013-10-26 13:22:00,55.8,21.4,30.22,SW,225,3.0,8.0,26,0.00,,,0.00,meteohub,2013-10-26 17:22:00,
2013-10-26 13:27:00,55.8,21.4,30.22,West,270,3.0,8.0,26,0.00,,,0.00,meteohub,2013-10-26 17:27:00,
2013-10-26 13:32:00,55.9,21.6,30.22,West,270,4.0,9.0,26,0.00,,,0.00,meteohub,2013-10-26 17:32:00,
2013-10-26 13:37:00,56.8,22.3,30.22,ESE,112,3.0,9.0,26,0.00,,,0.00,meteohub,2013-10-26 17:37:00,
2013-10-26 13:42:00,57.4,21.9,30.22,NNE,22,3.0,9.0,25,0.00,,,0.00,meteohub,2013-10-26 17:42:00,
2013-10-26 13:47:00,57.6,21.9,30.22,NNE,22,0.0,8.0,25,0.00,,,0.00,meteohub,2013-10-26 17:47:00,
2013-10-26 13:52:00,58.8,23.0,30.22,WSW,248,3.0,8.0,25,0.00,,,0.00,meteohub,2013-10-26 17:52:00,
2013-10-26 13:57:00,59.4,23.5,30.19,West,270,7.0,8.0,25,0.00,,,0.00,meteohub,2013-10-26 17:57:00,
2013-10-26 14:02:00,58.3,22.6,30.19,NE,45,3.0,9.0,25,0.00,,,0.00,meteohub,2013-10-26 18:02:00,
2013-10-26 14:07:00,58.8,23.0,30.19,NNW,338,5.0,9.0,25,0.00,,,0.00,meteohub,2013-10-26 18:07:00,
2013-10-26 14:12:00,58.6,22.8,30.19,East,90,3.0,9.0,25,0.00,,,0.00,meteohub,2013-10-26 18:12:00,
2013-10-26 14:17:00,60.1,24.1,30.19,WSW,248,5.0,8.0,25,0.00,,,0.00,meteohub,2013-10-26 18:17:00,
2013-10-26 14:22:00,59.2,22.5,30.19,WNW,292,5.0,8.0,24,0.00,,,0.00,meteohub,2013-10-26 18:22:00,
2013-10-26 14:27:00,59.2,22.5,30.19,ENE,68,2.0,8.0,24,0.00,,,0.00,meteohub,2013-10-26 18:27:00,
2013-10-26 14:32:00,60.1,23.2,30.19,WSW,248,5.0,8.0,24,0.00,,,0.00,meteohub,2013-10-26 18:32:00,
2013-10-26 14:37:00,58.8,23.0,30.19,WSW,248,5.0,10.0,25,0.00,,,0.00,meteohub,2013-10-26 18:37:00,
2013-10-26 14:42:00,60.4,23.5,30.19,South,180,4.0,10.0,24,0.00,,,0.00,meteohub,2013-10-26 18:42:00,
2013-10-26 14:47:00,59.4,22.6,30.19,WSW,248,4.0,10.0,24,0.00,,,0.00,meteohub,2013-10-26 18:47:00,
2013-10-26 14:52:00,60.4,23.5,30.19,ESE,112,3.0,10.0,24,0.00,,,0.00,meteohub,2013-10-26 18:52:00,
2013-10-26 14:57:00,59.4,22.6,30.16,SSW,202,4.0,9.0,24,0.00,,,0.00,meteohub,2013-10-26 18:57:00,
2013-10-26 15:02:00,60.4,23.5,30.16,West,270,5.0,8.0,24,0.00,,,0.00,meteohub,2013-10-26 19:02:00,
2013-10-26 15:07:00,59.7,22.8,30.16,SSE,158,3.0,8.0,24,0.00,,,0.00,meteohub,2013-10-26 19:07:00,
2013-10-26 15:12:00,60.4,23.5,30.16,East,90,3.0,8.0,24,0.00,,,0.00,meteohub,2013-10-26 19:12:00,
2013-10-26 15:16:00,60.3,23.4,30.16,SW,225,4.0,8.0,24,0.00,,,0.00,meteohub,2013-10-26 19:16:00,
2013-10-26 15:22:00,61.0,23.9,30.16,South,180,3.0,8.0,24,0.00,,,0.00,meteohub,2013-10-26 19:22:00,
2013-10-26 15:27:00,60.6,23.5,30.16,WNW,292,3.0,6.0,24,0.00,,,0.00,meteohub,2013-10-26 19:27:00,
2013-10-26 15:32:00,61.7,24.6,30.16,ESE,112,3.0,8.0,24,0.00,,,0.00,meteohub,2013-10-26 19:32:00,
2013-10-26 15:37:00,60.4,23.5,30.16,SW,225,6.0,8.0,24,0.00,,,0.00,meteohub,2013-10-26 19:37:00,
2013-10-26 15:42:00,60.8,23.7,30.16,SW,225,5.0,8.0,24,0.00,,,0.00,meteohub,2013-10-26 19:42:00,
2013-10-26 15:47:00,61.0,23.9,30.16,West,270,3.0,8.0,24,0.00,,,0.00,meteohub,2013-10-26 19:47:00,
2013-10-26 15:52:00,61.5,24.4,30.16,SE,135,4.0,8.0,24,0.00,,,0.00,meteohub,2013-10-26 19:52:00,
2013-10-26 15:57:00,61.7,24.6,30.13,ESE,112,3.0,6.0,24,0.00,,,0.00,meteohub,2013-10-26 19:57:00,
2013-10-26 16:02:00,61.3,24.3,30.13,WSW,248,4.0,6.0,24,0.00,,,0.00,meteohub,2013-10-26 20:02:00,
2013-10-26 16:07:00,60.4,23.5,30.13,SW,225,3.0,10.0,24,0.00,,,0.00,meteohub,2013-10-26 20:07:00,
2013-10-26 16:12:00,61.2,24.1,30.13,SW,225,5.0,10.0,24,0.00,,,0.00,meteohub,2013-10-26 20:12:00,
2013-10-26 16:17:00,59.7,22.8,30.13,WSW,248,6.0,10.0,24,0.00,,,0.00,meteohub,2013-10-26 20:17:00,
2013-10-26 16:22:00,59.2,22.5,30.13,West,270,6.0,10.0,24,0.00,,,0.00,meteohub,2013-10-26 20:22:00,
2013-10-26 16:27:00,59.4,22.6,30.13,WNW,292,4.0,10.0,24,0.00,,,0.00,meteohub,2013-10-26 20:27:00,
2013-10-26 16:32:00,60.4,23.5,30.13,WSW,248,4.0,9.0,24,0.00,,,0.00,meteohub,2013-10-26 20:32:00,
2013-10-26 16:37:00,59.9,23.0,30.13,WNW,292,8.0,8.0,24,0.00,,,0.00,meteohub,2013-10-26 20:37:00,
2013-10-26 16:42:00,59.7,22.8,30.13,West,270,5.0,8.0,24,0.00,,,0.00,meteohub,2013-10-26 20:42:00,
2013-10-26 16:47:00,59.7,22.8,30.13,WNW,292,5.0,8.0,24,0.00,,,0.00,meteohub,2013-10-26 20:47:00,
2013-10-26 16:52:00,60.1,23.2,30.13,WNW,292,3.0,8.0,24,0.00,,,0.00,meteohub,2013-10-26 20:52:00,
2013-10-26 16:57:00,59.4,22.6,30.13,West,270,5.0,6.0,24,0.00,,,0.00,meteohub,2013-10-26 20:57:00,
2013-10-26 17:02:00,59.5,22.6,30.13,West,270,0.0,7.0,24,0.00,,,0.00,meteohub,2013-10-26 21:02:00,
2013-10-26 17:07:00,59.7,22.8,30.13,SSW,202,2.0,7.0,24,0.00,,,0.00,meteohub,2013-10-26 21:07:00,
2013-10-26 17:12:00,60.1,23.2,30.10,ESE,112,0.0,7.0,24,0.00,,,0.00,meteohub,2013-10-26 21:12:00,
2013-10-26 17:17:00,60.3,23.4,30.10,WNW,292,2.0,5.0,24,0.00,,,0.00,meteohub,2013-10-26 21:17:00,
2013-10-26 17:22:00,59.9,23.0,30.10,West,270,4.0,5.0,24,0.00,,,0.00,meteohub,2013-10-26 21:22:00,
2013-10-26 17:27:00,59.4,22.6,30.10,SW,225,0.0,6.0,24,0.00,,,0.00,meteohub,2013-10-26 21:27:00,
2013-10-26 17:32:00,59.4,22.6,30.10,West,270,4.0,6.0,24,0.00,,,0.00,meteohub,2013-10-26 21:32:00,
2013-10-26 17:37:00,58.8,23.0,30.10,West,270,0.0,6.0,25,0.00,,,0.00,meteohub,2013-10-26 21:37:00,
2013-10-26 17:42:00,57.9,22.3,30.10,NW,315,3.0,5.0,25,0.00,,,0.00,meteohub,2013-10-26 21:42:00,
2013-10-26 17:47:00,57.0,21.6,30.10,WSW,248,3.0,5.0,25,0.00,,,0.00,meteohub,2013-10-26 21:47:00,
2013-10-26 17:52:00,56.3,21.9,30.10,WNW,292,0.0,6.0,26,0.00,,,0.00,meteohub,2013-10-26 21:52:00,
2013-10-26 17:57:00,55.8,22.3,30.10,WSW,248,0.0,6.0,27,0.00,,,0.00,meteohub,2013-10-26 21:57:00,
2013-10-26 18:02:00,54.7,23.0,30.10,WSW,248,0.0,5.0,29,0.00,,,0.00,meteohub,2013-10-26 22:02:00,
2013-10-26 18:07:00,53.8,23.0,30.10,WSW,248,0.0,5.0,30,0.00,,,0.00,meteohub,2013-10-26 22:07:00,
2013-10-26 18:12:00,53.1,25.3,30.10,WSW,248,0.0,0.0,34,0.00,,,0.00,meteohub,2013-10-26 22:12:00,
2013-10-26 18:17:00,52.0,25.9,30.10,WSW,248,0.0,2.0,36,0.00,,,0.00,meteohub,2013-10-26 22:17:00,
2013-10-26 18:22:00,51.3,25.9,30.10,WSW,248,0.0,2.0,37,0.00,,,0.00,meteohub,2013-10-26 22:22:00,
2013-10-26 18:27:00,50.7,26.1,30.10,WSW,248,0.0,2.0,38,0.00,,,0.00,meteohub,2013-10-26 22:27:00,
2013-10-26 18:32:00,50.0,25.3,30.10,WSW,248,0.0,0.0,38,0.00,,,0.00,meteohub,2013-10-26 22:32:00,
2013-10-26 18:37:00,49.5,25.5,30.10,WSW,248,0.0,0.0,39,0.00,,,0.00,meteohub,2013-10-26 22:37:00,
2013-10-26 18:42:00,48.9,26.2,30.10,WSW,248,0.0,0.0,41,0.00,,,0.00,meteohub,2013-10-26 22:42:00,
2013-10-26 18:47:00,48.4,25.7,30.10,WSW,248,0.0,0.0,41,0.00,,,0.00,meteohub,2013-10-26 22:47:00,
2013-10-26 18:52:00,48.0,26.6,30.10,WSW,248,0.0,0.0,43,0.00,,,0.00,meteohub,2013-10-26 22:52:00,
2013-10-26 18:57:00,47.7,26.2,30.10,WSW,248,0.0,0.0,43,0.00,,,0.00,meteohub,2013-10-26 22:57:00,
2013-10-26 19:02:00,47.5,26.1,30.10,WSW,248,0.0,0.0,43,0.00,,,0.00,meteohub,2013-10-26 23:02:00,
2013-10-26 19:07:00,47.3,26.4,30.10,WSW,248,0.0,0.0,44,0.00,,,0.00,meteohub,2013-10-26 23:07:00,
2013-10-26 19:12:00,46.9,27.3,30.10,WSW,248,0.0,0.0,46,0.00,,,0.00,meteohub,2013-10-26 23:12:00,
2013-10-26 19:17:00,46.6,27.0,30.10,WSW,248,0.0,0.0,46,0.00,,,0.00,meteohub,2013-10-26 23:17:00,
2013-10-26 19:22:00,46.2,27.1,30.10,WSW,248,0.0,0.0,47,0.00,,,0.00,meteohub,2013-10-26 23:22:00,
2013-10-26 19:27:00,46.0,27.0,30.10,WSW,248,0.0,0.0,47,0.00,,,0.00,meteohub,2013-10-26 23:27:00,
2013-10-26 19:32:00,46.6,27.0,30.10,ESE,112,0.0,4.0,46,0.00,,,0.00,meteohub,2013-10-26 23:32:00,
2013-10-26 19:37:00,47.3,25.9,30.10,WSW,248,3.0,4.0,43,0.00,,,0.00,meteohub,2013-10-26 23:37:00,
2013-10-26 19:42:00,47.3,25.9,30.10,NNW,338,0.0,4.0,43,0.00,,,0.00,meteohub,2013-10-26 23:42:00,
2013-10-26 19:47:00,47.7,25.7,30.10,NNW,338,0.0,3.0,42,0.00,,,0.00,meteohub,2013-10-26 23:47:00,
2013-10-26 19:52:00,47.7,25.2,30.10,NNW,338,0.0,3.0,41,0.00,,,0.00,meteohub,2013-10-26 23:52:00,
2013-10-26 19:57:00,47.3,26.4,30.10,NNW,338,0.0,3.0,44,0.00,,,0.00,meteohub,2013-10-26 23:57:00,
2013-10-26 20:02:00,46.9,25.5,30.10,NNW,338,0.0,2.0,43,0.00,,,0.00,meteohub,2013-10-27 00:02:00,
2013-10-26 20:07:00,46.6,25.9,30.10,WNW,292,0.0,0.0,44,0.00,,,0.00,meteohub,2013-10-27 00:07:00,
2013-10-26 20:12:00,47.1,25.7,30.10,WNW,292,0.0,3.0,43,0.00,,,0.00,meteohub,2013-10-27 00:12:00,
2013-10-26 20:17:00,46.9,25.5,30.10,WNW,292,0.0,3.0,43,0.00,,,0.00,meteohub,2013-10-27 00:17:00,
2013-10-26 20:22:00,46.6,25.9,30.10,WNW,292,0.0,3.0,44,0.00,,,0.00,meteohub,2013-10-27 00:22:00,
2013-10-26 20:27:00,46.4,26.2,30.10,WNW,292,0.0,2.0,45,0.00,,,0.00,meteohub,2013-10-27 00:27:00,
2013-10-26 20:32:00,46.2,27.1,30.10,WNW,292,0.0,0.0,47,0.00,,,0.00,meteohub,2013-10-27 00:32:00,
2013-10-26 20:37:00,45.9,26.8,30.10,WNW,292,0.0,0.0,47,0.00,,,0.00,meteohub,2013-10-27 00:37:00,
2013-10-26 20:42:00,45.7,27.1,30.10,WNW,292,0.0,0.0,48,0.00,,,0.00,meteohub,2013-10-27 00:42:00,
2013-10-26 20:47:00,45.3,27.3,30.10,WNW,292,0.0,0.0,49,0.00,,,0.00,meteohub,2013-10-27 00:47:00,
2013-10-26 20:52:00,45.1,27.1,30.10,WNW,292,0.0,0.0,49,0.00,,,0.00,meteohub,2013-10-27 00:52:00,
2013-10-26 20:57:00,44.8,27.3,30.10,WNW,292,0.0,0.0,50,0.00,,,0.00,meteohub,2013-10-27 00:57:00,
2013-10-26 21:02:00,44.6,27.1,30.10,WNW,292,0.0,0.0,50,0.00,,,0.00,meteohub,2013-10-27 01:02:00,
2013-10-26 21:07:00,44.4,27.5,30.10,WNW,292,0.0,0.0,51,0.00,,,0.00,meteohub,2013-10-27 01:07:00,
2013-10-26 21:12:00,44.2,27.7,30.10,WNW,292,0.0,0.0,52,0.00,,,0.00,meteohub,2013-10-27 01:12:00,
2013-10-26 21:17:00,44.1,27.5,30.10,WNW,292,0.0,0.0,52,0.00,,,0.00,meteohub,2013-10-27 01:17:00,
2013-10-26 21:22:00,43.9,27.3,30.10,WNW,292,0.0,0.0,52,0.00,,,0.00,meteohub,2013-10-27 01:22:00,
2013-10-26 21:27:00,44.1,28.0,30.10,WNW,292,0.0,0.0,53,0.00,,,0.00,meteohub,2013-10-27 01:27:00,
2013-10-26 21:32:00,44.1,28.4,30.10,WNW,292,0.0,0.0,54,0.00,,,0.00,meteohub,2013-10-27 01:32:00,
2013-10-26 21:37:00,44.4,28.4,30.10,WNW,292,0.0,0.0,53,0.00,,,0.00,meteohub,2013-10-27 01:37:00,
2013-10-26 21:42:00,44.8,28.2,30.10,WNW,292,0.0,0.0,52,0.00,,,0.00,meteohub,2013-10-27 01:42:00,
2013-10-26 21:47:00,45.1,28.6,30.10,WNW,292,0.0,0.0,52,0.00,,,0.00,meteohub,2013-10-27 01:47:00,
2013-10-26 21:52:00,45.3,28.2,30.10,WNW,292,0.0,0.0,51,0.00,,,0.00,meteohub,2013-10-27 01:52:00,
2013-10-26 21:57:00,45.5,27.9,30.10,WNW,292,0.0,0.0,50,0.00,,,0.00,meteohub,2013-10-27 01:57:00,
2013-10-26 22:02:00,45.3,27.9,30.10,WNW,292,0.0,0.0,50,0.00,,,0.00,meteohub,2013-10-27 02:02:00,
2013-10-26 22:07:00,45.1,27.7,30.10,WNW,292,0.0,0.0,50,0.00,,,0.00,meteohub,2013-10-27 02:07:00,
2013-10-26 22:12:00,44.8,27.3,30.10,WNW,292,0.0,0.0,50,0.00,,,0.00,meteohub,2013-10-27 02:12:00,
2013-10-26 22:17:00,44.6,27.5,30.10,WNW,292,0.0,0.0,51,0.00,,,0.00,meteohub,2013-10-27 02:17:00,
2013-10-26 22:22:00,44.2,27.7,30.10,WNW,292,0.0,0.0,52,0.00,,,0.00,meteohub,2013-10-27 02:22:00,
2013-10-26 22:27:00,44.1,27.5,30.10,WNW,292,0.0,0.0,52,0.00,,,0.00,meteohub,2013-10-27 02:27:00,
2013-10-26 22:32:00,44.1,28.0,30.10,WNW,292,0.0,0.0,53,0.00,,,0.00,meteohub,2013-10-27 02:32:00,
2013-10-26 22:37:00,44.1,28.4,30.10,WNW,292,0.0,0.0,54,0.00,,,0.00,meteohub,2013-10-27 02:37:00,
2013-10-26 22:42:00,44.2,28.6,30.10,WNW,292,0.0,0.0,54,0.00,,,0.00,meteohub,2013-10-27 02:42:00,
2013-10-26 22:47:00,44.6,28.9,30.10,WNW,292,0.0,0.0,54,0.00,,,0.00,meteohub,2013-10-27 02:47:00,
2013-10-26 22:52:00,44.6,29.5,30.10,WNW,292,0.0,0.0,55,0.00,,,0.00,meteohub,2013-10-27 02:52:00,
2013-10-26 22:57:00,44.8,29.7,30.10,WNW,292,0.0,0.0,55,0.00,,,0.00,meteohub,2013-10-27 02:57:00,
2013-10-26 23:03:00,44.8,29.7,30.10,WNW,292,0.0,0.0,55,0.00,,,0.00,meteohub,2013-10-27 03:03:00,
2013-10-26 23:08:00,44.8,29.7,30.10,WNW,292,0.0,0.0,55,0.00,,,0.00,meteohub,2013-10-27 03:08:00,
2013-10-26 23:13:00,44.8,29.7,30.10,WNW,292,0.0,0.0,55,0.00,,,0.00,meteohub,2013-10-27 03:13:00,
2013-10-26 23:18:00,45.0,30.2,30.10,WNW,292,0.0,0.0,56,0.00,,,0.00,meteohub,2013-10-27 03:18:00,
2013-10-26 23:23:00,45.1,30.4,30.10,WNW,292,0.0,0.0,56,0.00,,,0.00,meteohub,2013-10-27 03:23:00,
2013-10-26 23:28:00,45.3,30.6,30.10,WNW,292,0.0,0.0,56,0.00,,,0.00,meteohub,2013-10-27 03:28:00,
2013-10-26 23:33:00,45.5,30.7,30.10,WNW,292,0.0,0.0,56,0.00,,,0.00,meteohub,2013-10-27 03:33:00,
2013-10-26 23:38:00,45.9,31.5,30.10,WNW,292,0.0,0.0,57,0.00,,,0.00,meteohub,2013-10-27 03:38:00,
2013-10-26 23:43:00,46.8,30.6,30.07,WNW,292,0.0,0.0,53,0.00,,,0.00,meteohub,2013-10-27 03:43:00,
2013-10-26 23:48:00,46.8,30.6,30.07,WNW,292,0.0,2.0,53,0.00,,,0.00,meteohub,2013-10-27 03:48:00,
2013-10-26 23:53:00,47.3,30.0,30.07,WNW,292,0.0,2.0,51,0.00,,,0.00,meteohub,2013-10-27 03:53:00,
2013-10-26 23:58:00,47.3,30.0,30.07,WNW,292,0.0,3.0,51,0.00,,,0.00,meteohub,2013-10-27 03:58:00,